Home > Weather > Bensheim > Past weeks

Flag for Germany Weather for the Past 2 Weeks in Bensheim, Hesse, Germany

Now
52 °F

Clear.


Feels Like: 48 °F
Forecast: 43 / 57 °F
Wind: 12 mph from Northeast

Location: Frankfurt-M-Flughafen Airport

Current Time: May 2, 2016 at 4:01:46 AM

Latest Report: May 2, 2016 at 3:20 AM


Visibility: 10 mi

Pressure: 30.24 "Hg

Humidity: 67%

Dew Point: 41 °F

Location of BensheimLocation

Historic Weather in Bensheim — Graph

°F

Bensheim Temperature Yesterday

Maximum temperature yesterday: 66 °F (at 5:20 PM)
Minimum temperature yesterday: 46 °F (at 12:20 AM)
Average temperature yesterday: 55 °F

High & Low Weather Summary for the Past Weeks

 TemperatureHumidityPressure
High70 °F (Apr 21, 4:50 PM)100% (Apr 17, 2:50 AM)30.45 "Hg (Apr 17, 2:50 AM)
Low30 °F (Apr 24, 4:50 AM)22% (Apr 20, 5:50 PM)29.56 "Hg (Apr 26, 12:20 AM)
Average47 °F63%30.00 "Hg
* Reported Apr 17 2:20 AM — May 2 2:20 AM, Bensheim, Weather by CustomWeather, © 2016

Note: Actual official high and low records may vary slightly from our data, if they occured in-between our weather recording intervals... More about our weather records

Advertising

Bensheim Weather History for the Previous 24 Hours

Scroll right to see more
 ConditionsComfort  
Time TempWeatherWind HumidityBarometerVisibility
2:20 AM
Mon, May 2
54 °FClear.10 mph63%30.24 "Hg10 mi
1:50 AM54 °FClear.12 mph63%30.24 "Hg10 mi
1:20 AM50 °FClear.12 mph67%30.24 "Hg10 mi
12:50 AM54 °FClear.10 mph58%30.24 "Hg10 mi
12:20 AM55 °FClear.9 mph55%30.24 "Hg10 mi
11:50 PM
Sun, May 1
55 °FClear.12 mph55%30.24 "Hg10 mi
11:20 PM55 °FClear.12 mph55%30.24 "Hg10 mi
10:50 PM57 °FClear.12 mph51%30.24 "Hg10 mi
10:20 PM57 °FClear.12 mph51%30.24 "Hg10 mi
9:50 PM59 °FClear.10 mph48%30.21 "Hg10 mi
9:20 PM59 °FSunny.10 mph48%30.21 "Hg10 mi
8:50 PM61 °FSunny.10 mph45%30.21 "Hg10 mi
8:20 PM63 °FSunny.14 mph42%30.18 "Hg10 mi
7:50 PM63 °FSunny.16 mph42%30.18 "Hg10 mi
7:20 PM64 °FSunny.16 mph37%30.15 "Hg10 mi
6:50 PM64 °FSunny.20 mph34%30.15 "Hg10 mi
6:20 PM64 °FSunny.18 mph37%30.15 "Hg10 mi
5:50 PM64 °FPassing clouds.21 mph37%30.15 "HgN/A
5:20 PM66 °FSunny.20 mph40%30.12 "Hg10 mi
4:50 PM64 °FSunny.23 mph40%30.12 "Hg10 mi
4:20 PM64 °FSunny.22 mph40%30.12 "Hg10 mi
3:50 PM64 °FPassing clouds.21 mph43%30.12 "HgN/A
3:20 PM64 °FSunny.21 mph43%30.12 "Hg10 mi
2:50 PM63 °FPassing clouds.23 mph45%30.12 "HgN/A
2:20 PM63 °FPassing clouds.21 mph42%30.12 "HgN/A
1:50 PM63 °FSunny.21 mph42%30.12 "Hg10 mi
1:20 PM59 °FPartly sunny.22 mph51%30.12 "HgN/A
12:50 PM59 °FPartly sunny.23 mph51%30.12 "HgN/A
12:20 PM57 °FPartly sunny.21 mph51%30.12 "HgN/A
11:50 AM55 °FPartly sunny.20 mph55%30.12 "HgN/A
11:20 AM55 °FPartly sunny.23 mph59%30.12 "HgN/A
10:50 AM54 °FScattered clouds.24 mph58%30.12 "HgN/A
10:20 AM52 °FPassing clouds.18 mph62%30.12 "HgN/A
9:50 AM50 °FPassing clouds.18 mph67%30.12 "HgN/A
8:50 AM48 °FPassing clouds.17 mph71%30.09 "HgN/A
8:20 AM48 °FPassing clouds.18 mph66%30.09 "HgN/A
7:50 AM48 °FPassing clouds.20 mph66%30.09 "HgN/A
7:20 AM46 °FScattered clouds.18 mph71%30.07 "HgN/A
6:20 AM46 °FPassing clouds.18 mph71%30.07 "HgN/A
5:50 AM46 °FPassing clouds.20 mph71%30.07 "HgN/A
5:20 AM46 °FPassing clouds.18 mph71%30.07 "HgN/A
4:20 AM46 °FPassing clouds.15 mph71%30.07 "HgN/A
Weather by CustomWeather, © 2016

See weather overviewHow to use our weather pages